Temperature
18 18 18 18 18 18 18 18 18 18 18 17 17 17 17 17 17 17 17 17 17 17 17 17 17 17 17 16 16 16 16 16 16 16 16 16 16 16 16 16 16 15 15
18 18 18 18 18 18 18 18 18 18 18 17 17 17 17 17 17 17 17 17 17 17 17 17 17 17 17 16 16 16 16 16 16 16 16 16 16 16 15 15 15 15 15
18 18 18 18 18 18 17 17 17 17 17 17 17 17 17 17 17 17 17 17 17 17 17 17 17 17 17 17 16 16 16 16 16 16 16 16 16 16 15 15 15 15 15
18 18 18 18 18 17 18 18 17 17 17 17 17 17 17 17 17 17 17 17 17 17 17 17 17 17 17 17 16 16 16 16 16 16 16 16 16 16 15 15 15 15 15
18 18 18 18 18 17 18 18 18 17 17 17 17 17 17 17 17 17 17 17 17 17 17 17 17 17 17 17 16 16 16 16 16 16 16 16 16 16 15 15 15 15 15
18 18 18 18 18 18 18 17 17 17 17 17 17 17 17 17 17 17 17 17 17 17 17 17 17 17 16 16 16 16 16 16 16 16 16 16 16 16 15 15 15 15 15
18 18 18 18 18 18 18 17 17 17 17 17 17 17 17 17 17 17 17 17 17 17 17 17 16 16 16 16 16 16 16 16 16 16 16 16 16 15 15 15 15 15 15
18 18 18 18 18 18 18 17 17 17 17 17 17 17 17 17 17 17 17 17 17 17 17 17 17 17 16 16 16 16 16 16 16 16 16 16 16 15 15 15 15 15 15
18 18 18 18 18 18 18 18 17 17 17 17 17 17 17 17 17 17 17 17 17 17 17 17 17 17 16 16 16 16 16 16 16 16 16 16 16 15 15 15 15 15 15
17 17 18 18 18 17 17 18 17 17 17 17 17 17 17 17 17 17 17 17 17 17 17 17 17 17 17 17 16 16 16 16 16 16 16 16 16 15 15 15 15 15 15
17 17 17 18 18 17 17 17 17 17 17 17 17 17 17 17 17 17 18 18 17 17 17 17 17 17 17 17 17 16 16 16 16 16 16 16 16 16 15 15 15 15 15
17 17 17 17 17 17 17 17 17 17 17 17 17 17 17 17 18 18 18 18 18 18 18 17 17 17 17 17 17 17 16 16 16 16 16 16 16 16 15 15 15 15 15
17 17 17 17 17 17 17 17 17 17 17 17 17 17 17 17 17 17 18 18 18 18 18 18 17 17 17 17 17 17 17 16 16 16 16 16 16 16 15 15 15 15 15
17 17 17 17 17 17 17 17 17 17 17 17 17 17 17 17 17 17 17 17 17 17 18 18 17 17 17 17 17 17 17 17 16 16 16 16 16 16 15 15 15 15 15
17 17 17 17 17 17 17 17 17 17 17 17 17 17 17 17 17 17 17 17 17 17 17 17 17 17 17 17 17 17 17 16 16 16 16 16 16 16 15 15 15 15 15
17 17 17 17 17 17 17 17 17 17 17 17 17 17 17 17 17 17 17 17 17 17 17 17 17 17 17 17 17 17 16 16 16 16 16 15 15 15 15 15 15 15 15
17 17 17 17 17 17 17 17 17 17 17 17 16 16 17 17 17 17 17 17 17 17 17 17 17 17 17 17 17 17 16 16 16 16 16 15 15 15 15 15 15 15 15
17 17 17 17 17 17 17 17 17 17 16 16 16 16 16 16 16 16 16 16 16 16 16 16 16 16 16 16 16 16 16 16 16 15 15 15 15 15 15 15 15 14 14
17 17 17 17 17 17 17 17 16 16 16 16 16 16 16 16 16 16 16 16 16 16 16 16 16 16 16 16 16 16 15 15 15 15 15 15 15 15 15 15 14 14 14
17 17 17 17 16 16 16 16 16 16 16 16 16 16 15 15 15 15 15 15 15 15 15 15 15 15 15 15 15 15 15 15 15 14 14 14 14 14 14 14 14 14 14
17 16 16 16 16 16 16 16 16 15 15 15 15 15 15 15 15 15 15 15 15 15 15 15 15 15 15 14 14 14 14 14 14 14 14 13 13 13 13 13 13 13 13
16 16 16 16 16 16 16 16 15 15 15 15 15 15 15 15 15 15 14 14 14 14 14 14 14 14 14 13 14 14 13 13 13 13 13 12 12 12 12 12 12 12 12
16 16 16 16 15 15 15 15 15 15 15 15 14 14 14 14 14 14 14 14 14 14 13 13 13 13 13 13 13 13 13 12 12 12 12 12 12 11 11 11 11 11 11
15 15 15 15 15 15 15 15 15 14 14 14 14 14 14 14 14 14 14 13 13 13 13 13 12 12 12 12 12 12 12 12 11 11 11 11 11 11 10 10 10 10 10
15 15 14 14 14 14 14 14 14 14 14 14 13 13 13 13 13 13 13 13 13 12 12 12 11 11 11 11 11 11 11 11 10 10 10 10 10 10 10 10 9 9 9
14 14 14 14 14 14 14 14 13 13 13 13 13 12 12 12 12 12 12 12 12 11 11 11 11 10 10 10 10 10 10 10 10 9 9 9 9 9 9 9 8 8 8
Wind_Speed
5 6 6 6 6 6 5 4 4 2 2 3 5 9 10 11 11 11 11 13 13 12 12 12 11 11 11 10 10 10 9 9 9 9 9 9 9 9 9 9 8 7 7
8 6 5 5 6 6 7 6 5 3 3 4 5 8 10 11 11 11 11 13 13 12 12 11 11 11 11 10 10 9 9 9 9 9 9 9 9 8 8 8 8 7 7
10 8 5 4 5 6 6 4 3 3 3 3 4 7 9 10 11 12 12 12 12 12 12 12 11 11 11 10 10 10 10 10 10 10 10 9 9 9 8 8 8 8 7
11 8 4 4 5 6 5 3 2 2 2 3 4 4 5 7 10 12 12 12 12 11 12 12 12 12 11 11 11 11 11 10 11 11 10 10 9 9 9 9 9 9 8
10 8 5 5 6 4 3 3 2 3 3 3 3 3 3 4 6 10 10 12 13 12 13 13 13 13 13 12 12 12 11 11 12 12 11 11 11 10 10 10 10 10 10
10 8 5 5 6 3 3 3 3 2 3 3 2 2 1 3 4 5 8 11 12 13 14 13 13 13 14 13 13 13 13 13 13 13 13 12 12 12 12 12 11 11 11
10 8 5 4 4 4 4 5 3 3 2 2 3 2 3 1 2 4 5 6 9 13 14 14 14 14 13 15 15 14 14 14 14 14 14 14 13 13 13 13 12 12 12
10 9 6 5 4 4 4 4 4 3 1 2 3 2 1 3 3 3 3 5 7 9 11 14 14 15 15 14 16 16 16 15 15 15 15 15 14 14 14 14 13 13 13
9 9 8 6 5 5 5 5 5 5 3 1 2 4 3 4 3 3 3 4 5 5 7 12 14 16 16 16 16 18 18 17 16 15 15 16 16 16 15 15 14 14 14
8 9 8 7 5 5 5 5 5 4 4 2 1 1 3 4 3 1 3 2 4 6 7 8 11 15 16 15 16 18 19 19 18 17 16 16 16 16 16 15 15 15 15
7 9 8 7 6 5 6 5 5 4 4 4 3 2 1 1 2 3 2 3 2 3 5 6 8 11 15 16 16 17 19 20 20 19 18 17 16 16 16 16 16 15 15
4 6 7 6 6 5 6 5 5 6 4 4 3 3 3 2 3 3 3 3 3 4 4 4 5 9 13 15 16 17 19 20 20 19 19 17 16 16 16 16 15 15 15
4 6 6 5 5 6 6 5 5 5 5 5 4 3 3 3 3 3 3 2 2 3 2 2 4 7 10 11 13 16 17 19 20 19 18 18 17 16 15 15 15 14 14
5 6 6 6 6 7 6 5 4 5 4 5 5 4 2 2 3 3 4 3 1 2 2 3 2 5 8 11 13 15 14 17 19 19 19 18 18 17 16 16 15 14 14
5 6 6 7 6 6 6 6 4 5 4 4 4 4 3 2 2 2 3 4 4 3 4 4 2 3 6 8 10 11 11 14 17 18 18 18 18 17 17 16 16 15 14
5 6 6 6 6 6 6 6 5 4 5 4 4 4 3 2 1 1 2 2 3 4 4 3 3 3 2 5 9 10 10 11 14 15 16 16 16 17 17 17 16 15 14
5 5 6 6 6 6 6 5 6 5 5 4 3 4 4 3 2 1 1 2 2 3 3 3 2 2 1 1 2 6 7 7 8 12 13 14 15 15 15 15 15 14 13
5 5 5 5 5 5 5 6 6 6 6 5 5 4 4 3 3 2 2 1 2 2 3 3 2 1 1 1 1 2 2 4 6 8 10 12 13 13 13 13 12 12 12
4 4 4 4 4 4 4 5 6 6 5 5 5 4 4 3 3 2 2 2 2 2 2 3 2 1 1 1 1 1 1 1 1 2 4 7 8 9 9 10 10 10 10
4 4 4 3 3 3 3 4 5 5 4 4 3 4 3 3 4 3 2 2 2 1 1 2 1 1 0 1 2 1 1 1 1 2 3 3 1 1 3 4 6 7 8
4 3 3 2 2 2 3 4 4 4 4 3 2 2 2 3 3 3 2 2 2 2 1 1 1 1 1 1 0 0 1 1 1 2 2 3 3 3 3 2 2 3 4
3 3 3 3 2 1 2 4 5 4 4 3 3 2 2 2 2 3 3 4 4 3 3 2 1 1 0 0 0 0 1 1 1 2 2 2 2 2 3 3 3 3 2
4 4 3 3 3 2 3 5 6 4 4 2 2 2 1 1 2 2 3 4 4 4 3 3 2 2 1 1 1 1 1 1 0 2 1 1 2 2 3 4 5 5 5
4 3 3 4 4 3 4 6 8 6 5 4 3 3 3 2 2 3 4 4 4 4 3 2 3 2 1 1 1 1 1 2 1 3 3 1 2 2 2 4 5 6 7
5 4 4 4 4 3 4 6 7 5 5 5 4 4 4 3 4 6 7 7 6 4 8 10 10 9 9 8 5 3 3 3 2 2 3 2 2 2 2 2 5 8 8
6 5 5 5 5 4 5 6 7 5 6 5 5 5 7 6 6 7 6 6 6 3 5 6 7 8 8 9 10 6 3 3 2 1 3 2 2 2 3 3 4 8 9
Wind_Direction
163 168 172 179 188 189 187 194 211 214 187 150 143 144 147 150 153 158 166 168 165 164 163 163 162 162 163 162 161 160 158 159 158 156 155 154 155 156 156 154 154 153 154
171 169 169 177 187 190 189 189 195 185 161 142 141 147 148 155 161 166 169 173 173 172 171 172 173 174 173 172 172 172 171 171 169 169 169 168 167 168 169 166 166 166 166
172 167 166 173 183 183 171 160 166 139 133 134 134 146 154 163 168 173 175 177 180 181 182 183 183 184 184 184 184 184 183 182 181 182 182 181 181 181 181 182 180 179 179
172 165 161 172 177 167 158 144 131 115 116 130 137 153 155 167 174 177 180 184 186 189 194 194 193 194 194 195 195 195 193 192 192 193 193 193 193 193 193 192 192 193 193
171 164 159 168 165 153 153 157 133 134 138 141 146 152 154 165 176 180 185 193 195 198 199 203 202 202 204 205 204 204 203 202 201 202 202 203 204 203 203 205 205 207 207
174 165 162 164 152 138 142 139 137 127 141 151 146 137 165 181 181 187 194 197 201 204 206 206 207 210 214 214 212 212 212 211 209 209 210 210 212 212 212 213 214 217 217
177 168 167 163 151 153 162 150 134 127 124 124 90 40 349 319 211 207 200 194 203 207 207 210 210 212 219 222 220 219 219 218 216 214 215 215 216 217 217 218 220 223 225
178 177 168 168 160 156 155 146 133 129 138 140 132 113 11 338 311 239 214 201 206 207 206 212 213 216 219 221 224 225 225 224 222 220 219 219 220 220 221 223 224 227 231
182 176 174 170 166 163 171 171 157 148 160 175 154 148 156 216 272 302 251 220 203 199 207 208 211 218 222 223 226 229 228 228 226 224 223 222 222 223 224 226 229 231 233
183 180 177 175 175 173 176 184 172 161 154 171 197 186 175 163 164 267 307 272 230 212 207 212 214 217 220 221 224 228 229 228 227 226 225 225 225 226 226 228 232 234 236
190 186 181 177 176 179 183 181 167 166 162 166 175 177 162 154 152 158 240 283 281 238 216 215 215 214 216 217 220 225 227 228 228 227 227 228 229 229 229 232 235 238 240
200 193 183 180 180 182 186 186 179 172 173 168 172 169 166 170 189 175 200 234 245 261 237 222 217 217 217 216 219 224 225 227 228 228 229 230 231 232 232 234 237 241 245
206 202 196 185 184 188 186 180 177 178 177 172 179 183 179 189 179 170 172 201 233 273 281 252 231 224 220 215 220 224 226 226 225 226 227 229 232 232 233 235 239 243 247
203 197 193 191 189 186 187 175 181 189 184 184 188 182 181 197 185 180 172 163 187 291 289 266 255 226 221 213 219 221 223 226 227 227 228 230 232 233 234 236 238 241 245
202 195 188 191 190 185 182 176 185 191 183 191 193 189 190 201 189 189 176 167 163 201 253 262 258 247 224 213 215 212 219 227 227 228 230 232 234 235 236 237 240 243 246
200 188 187 191 190 189 186 187 188 193 187 198 194 189 195 196 174 166 170 171 170 177 219 251 246 255 229 214 211 207 217 227 228 229 232 235 237 238 239 241 242 243 246
192 189 186 185 186 189 189 181 183 183 190 203 204 198 208 202 195 198 161 151 163 163 195 261 276 289 255 216 194 208 221 229 234 233 232 235 238 241 243 243 243 245 247
185 182 177 173 182 185 184 187 190 187 191 201 207 203 220 213 208 203 175 172 181 179 178 220 280 304 288 231 195 194 216 225 227 237 238 242 245 247 246 244 243 244 246
172 170 166 171 178 181 186 194 188 187 194 202 200 199 215 200 211 210 188 190 206 192 169 178 230 248 286 352 41 2 39 6 219 252 253 255 250 246 246 244 241 244 245
169 167 167 169 176 184 186 189 181 181 186 189 188 187 192 189 203 204 195 206 204 178 155 155 197 247 312 344 85 70 20 1 5 22 25 27 22 271 249 241 241 241 241
168 164 154 151 152 164 183 174 169 169 167 173 177 174 165 152 162 178 187 192 176 160 146 137 146 62 33 46 68 138 150 329 17 30 17 15 35 42 27 8 306 273 256
146 136 135 142 138 180 148 149 154 151 147 155 169 175 150 123 113 117 119 122 137 159 171 158 161 152 199 160 13 96 111 70 337 346 30 2 29 20 9 27 19 3 329
137 135 142 136 129 121 127 133 135 135 126 131 141 139 132 88 97 106 91 80 67 66 121 151 148 179 181 215 115 66 77 93 291 320 41 7 2 2 354 10 20 15 1
131 125 123 122 115 99 114 129 127 122 114 105 104 116 120 101 96 111 106 86 67 47 61 92 118 117 113 127 149 159 154 111 59 10 42 59 349 333 346 11 17 9 357
117 106 106 105 104 85 96 124 126 114 104 86 74 79 106 108 95 105 108 102 84 57 62 78 83 79 71 62 65 77 68 82 50 359 11 59 341 333 341 340 5 8 359
116 110 94 86 91 86 89 116 126 119 108 95 70 58 65 81 86 98 111 113 104 87 81 76 65 59 54 49 51 59 79 94 87 9 344 25 1 11 358 332 346 360 1
Height
1568 1570 1571 1573 1574 1575 1577 1578 1579 1580 1581 1582 1582 1583 1584 1584 1585 1586 1586 1586 1587 1587 1588 1588 1589 1589 1590 1591 1592 1592 1593 1594 1594 1595 1596 1596 1597 1598 1598 1599 1599 1600 1600
1568 1570 1571 1573 1574 1576 1577 1578 1579 1581 1581 1582 1583 1584 1584 1585 1586 1586 1587 1587 1588 1588 1588 1589 1589 1590 1591 1592 1592 1593 1593 1594 1595 1595 1596 1597 1597 1598 1598 1599 1600 1600 1600
1568 1570 1572 1573 1574 1576 1577 1579 1580 1581 1582 1583 1583 1584 1585 1586 1586 1587 1587 1587 1588 1588 1589 1589 1590 1590 1591 1591 1592 1593 1593 1594 1595 1595 1596 1597 1597 1598 1598 1599 1600 1600 1600
1568 1570 1572 1573 1574 1575 1577 1578 1580 1581 1582 1583 1584 1584 1585 1586 1586 1587 1587 1588 1588 1588 1589 1589 1590 1590 1591 1591 1592 1592 1593 1594 1594 1595 1596 1596 1597 1598 1598 1599 1599 1600 1600
1567 1570 1571 1573 1574 1575 1577 1578 1579 1580 1582 1583 1584 1584 1585 1585 1586 1587 1587 1588 1588 1588 1589 1589 1589 1590 1590 1591 1591 1592 1592 1593 1594 1594 1595 1595 1596 1597 1597 1598 1598 1599 1599
1566 1569 1570 1572 1573 1575 1576 1577 1579 1580 1581 1582 1583 1584 1585 1585 1585 1586 1587 1587 1588 1588 1588 1589 1589 1589 1589 1590 1590 1591 1591 1592 1592 1593 1594 1594 1595 1596 1596 1597 1597 1598 1598
1565 1567 1569 1570 1572 1574 1575 1576 1578 1579 1580 1582 1583 1583 1584 1584 1585 1585 1586 1586 1587 1587 1587 1588 1588 1588 1589 1589 1589 1590 1590 1590 1591 1591 1592 1592 1593 1594 1594 1595 1596 1596 1597
1564 1566 1567 1569 1571 1573 1574 1575 1576 1578 1579 1581 1582 1582 1583 1584 1584 1584 1584 1585 1585 1586 1586 1587 1587 1587 1588 1588 1588 1588 1588 1589 1589 1589 1590 1590 1591 1592 1592 1593 1594 1594 1595
1562 1563 1566 1568 1569 1571 1572 1574 1575 1576 1578 1579 1580 1581 1581 1581 1582 1582 1582 1583 1584 1584 1585 1585 1586 1586 1586 1586 1587 1587 1587 1587 1587 1587 1588 1588 1589 1589 1590 1591 1591 1592 1592
1560 1561 1564 1566 1567 1569 1570 1572 1573 1575 1576 1577 1578 1579 1580 1580 1580 1580 1581 1581 1582 1582 1583 1583 1584 1584 1584 1585 1585 1585 1585 1585 1585 1585 1586 1586 1587 1587 1587 1588 1588 1589 1589
1557 1559 1561 1563 1565 1566 1568 1570 1571 1573 1574 1575 1576 1577 1578 1578 1579 1579 1579 1580 1580 1580 1581 1581 1582 1582 1582 1582 1583 1583 1583 1583 1583 1583 1584 1584 1584 1584 1585 1585 1586 1586 1586
1554 1556 1558 1560 1562 1564 1566 1567 1569 1570 1572 1573 1574 1575 1576 1576 1577 1577 1577 1577 1577 1578 1579 1579 1579 1580 1580 1580 1581 1581 1581 1581 1581 1581 1581 1582 1582 1582 1582 1582 1583 1583 1583
1550 1552 1555 1557 1559 1561 1563 1565 1566 1567 1569 1570 1571 1572 1573 1574 1575 1575 1575 1575 1575 1576 1576 1576 1577 1577 1578 1578 1578 1578 1579 1579 1579 1579 1579 1579 1579 1579 1579 1580 1580 1580 1580
1548 1550 1552 1554 1556 1558 1560 1562 1563 1564 1566 1567 1569 1570 1571 1571 1572 1573 1573 1573 1573 1573 1573 1574 1574 1574 1575 1575 1576 1576 1576 1576 1576 1576 1577 1576 1576 1576 1576 1577 1577 1577 1577
1545 1547 1549 1551 1553 1555 1557 1559 1560 1561 1563 1564 1565 1567 1568 1569 1570 1570 1570 1570 1571 1570 1570 1571 1571 1571 1571 1572 1573 1573 1573 1573 1574 1574 1574 1574 1573 1573 1573 1573 1573 1573 1573
1542 1544 1546 1548 1550 1552 1554 1555 1556 1558 1560 1561 1562 1563 1564 1565 1566 1567 1567 1567 1567 1568 1567 1568 1568 1568 1568 1568 1569 1569 1570 1570 1570 1570 1570 1570 1570 1570 1570 1570 1570 1569 1569
1539 1541 1543 1545 1547 1549 1551 1552 1553 1555 1556 1558 1559 1560 1561 1562 1562 1563 1564 1564 1564 1564 1564 1564 1565 1565 1565 1565 1565 1566 1566 1566 1567 1567 1567 1567 1566 1566 1566 1566 1566 1565 1565
1538 1539 1541 1543 1544 1546 1548 1549 1550 1552 1553 1554 1555 1556 1557 1558 1559 1560 1560 1560 1561 1561 1561 1561 1561 1561 1561 1562 1562 1562 1562 1563 1563 1563 1563 1562 1562 1562 1562 1561 1561 1561 1560
1535 1537 1538 1540 1541 1543 1544 1546 1547 1549 1550 1551 1552 1553 1554 1555 1556 1556 1557 1557 1557 1558 1557 1558 1557 1558 1557 1558 1558 1558 1558 1558 1558 1558 1558 1558 1557 1557 1557 1556 1556 1556 1555
1533 1535 1536 1537 1539 1540 1541 1543 1544 1545 1546 1547 1548 1549 1550 1551 1552 1553 1553 1554 1554 1554 1554 1554 1554 1554 1554 1554 1554 1554 1554 1554 1554 1554 1553 1553 1553 1553 1552 1552 1552 1551 1551
1531 1533 1534 1535 1537 1538 1539 1540 1541 1542 1543 1544 1545 1546 1546 1547 1548 1549 1550 1550 1551 1551 1550 1550 1550 1550 1550 1550 1550 1549 1550 1550 1549 1549 1549 1549 1549 1549 1548 1548 1547 1547 1546
1530 1530 1532 1533 1534 1535 1537 1537 1538 1539 1540 1541 1542 1543 1543 1544 1545 1546 1546 1547 1547 1547 1547 1547 1547 1546 1546 1546 1547 1546 1546 1546 1546 1546 1545 1545 1545 1545 1545 1544 1543 1543 1542
1527 1528 1529 1530 1531 1533 1534 1535 1536 1537 1538 1538 1539 1540 1541 1541 1542 1542 1543 1543 1543 1543 1544 1544 1543 1543 1543 1543 1544 1543 1543 1543 1543 1543 1543 1542 1542 1541 1542 1541 1540 1540 1539
1526 1527 1528 1528 1529 1531 1532 1533 1534 1534 1535 1536 1536 1537 1538 1538 1539 1539 1539 1539 1539 1540 1540 1540 1540 1540 1541 1541 1541 1541 1541 1540 1540 1540 1540 1540 1539 1539 1539 1538 1537 1536 1536
1524 1525 1526 1527 1528 1529 1530 1531 1532 1533 1533 1534 1534 1535 1535 1535 1535 1536 1537 1536 1537 1537 1538 1538 1538 1538 1538 1539 1539 1539 1538 1538 1537 1538 1538 1538 1537 1537 1536 1535 1534 1533 1533
1523 1524 1524 1525 1526 1527 1529 1530 1530 1531 1531 1532 1532 1532 1533 1533 1533 1534 1535 1535 1535 1536 1536 1536 1537 1537 1537 1537 1537 1536 1536 1536 1535 1536 1535 1535 1535 1534 1534 1533 1532 1531 1530